This demonstration page uses our WeatherBlox Daily Observations layout. Learn more.

Left ArrowRight Arrow

34.02893, -84.19858

Hourly Observations for October 14, 2019

Temp ( °F °C ) Dew Point ( °F °C ) Humidity (%) Winds ( mph kmh ) Pressure ( in mb ) Visibility ( mi km ) Precip ( " mm )
12:53 am 00:53 Clear 59 15 58 14.4 96 96 W 6 9 30.05 1018 10 16 0.00 0.00
1:14 am 01:14 Partly Cloudy 59 15 58 14.4 96 96 W 6 9 30.06 1018 10 16 0.00 0.00
1:23 am 01:23 Mostly Cloudy 59 15 58 14.4 96 96 Calm 30.06 1018 10 16 0.00 0.00
1:53 am 01:53 Cloudy 59 15 58 14.4 96 96 NNW 3 6 30.05 1018 10 16 0.00 0.00
2:17 am 02:17 Partly Cloudy 58 14.4 57 13.9 97 97 N 3 6 30.05 1018 10 16 0.00 0.00
2:53 am 02:53 Mostly Clear 57 13.9 56 13.3 96 96 N 5 7 30.04 1017 10 16 0.00 0.00
3:53 am 03:53 Clear 55 12.8 54 12.2 96 96 NW 3 6 30.05 1018 10 16 0.00 0.00
4:53 am 04:53 Clear 54 12.2 51 10.6 90 90 W 3 6 30.06 1018 10 16 0.00 0.00
5:53 am 05:53 Clear 52 11.1 49 9.4 89 89 WSW 5 7 30.08 1019 10 16 0.00 0.00
6:53 am 06:53 Clear 51 10.6 48 8.9 89 89 Calm 30.09 1019 10 16 0.00 0.00
7:53 am 07:53 Sunny 50 10 48 8.9 93 93 WSW 3 6 30.10 1019 10 16 0.00 0.00
8:53 am 08:53 Sunny 53 11.7 49 9.4 86 86 Calm 30.11 1020 10 16 0.00 0.00
9:53 am 09:53 Sunny 58 14.4 51 10.6 78 78 NW 5 7 30.13 1020 10 16 0.00 0.00
10:53 am 10:53 Sunny 63 17.2 49 9.4 60 60 W 6 9 30.13 1020 10 16 0.00 0.00
11:53 am 11:53 Sunny 66 18.9 47 8.3 50 50 W 3 6 30.11 1020 10 16 0.00 0.00
12:53 pm 12:53 Sunny 72 22.2 42 5.6 34 34 VRB 5 7 30.10 1019 10 16 0.00 0.00
1:53 pm 13:53 Sunny 74 23.3 38 3.3 27 27 NW 6 9 30.08 1019 10 16 0.00 0.00
2:53 pm 14:53 Sunny 75 23.9 40 4.4 28 28 W 8 13 30.07 1018 10 16 0.00 0.00
3:53 pm 15:53 Sunny 75 23.9 43 6.1 32 32 W 6 9 30.07 1018 10 16 0.00 0.00
4:53 pm 16:53 Sunny 74 23.3 45 7.2 36 36 W 5 7 30.06 1018 10 16 0.00 0.00
5:53 pm 17:53 Sunny 74 23.3 47 8.3 38 38 W 5 7 30.06 1018 10 16 0.00 0.00
6:53 pm 18:53 Sunny 70 21.1 49 9.4 47 47 WSW 5 7 30.06 1018 10 16 0.00 0.00
7:53 pm 19:53 Clear 64 17.8 53 11.7 68 68 Calm 30.09 1019 10 16 0.00 0.00
8:53 pm 20:53 Clear 66 18.9 53 11.7 63 63 Calm 30.09 1019 10 16 0.00 0.00
9:53 pm 21:53 Clear 63 17.2 55 12.8 76 76 Calm 30.09 1019 10 16 0.00 0.00
10:53 pm 22:53 Clear 61 16.1 57 13.9 87 87 Calm 30.10 1019 10 16 0.00 0.00
11:53 pm 23:53 Clear 60 15.6 56 13.3 86 86 Calm 30.10 1019 10 16 0.00 0.00

Powered by AerisWeather